Regional Weather Roundup
Issued by NWS

Home | Current Version | Previous Version | Text Only | Print | Product List | Glossary Off
Versions: 1 2 3 4 5 6 7 8 9 10 11 12 13 14 15 16 17 18 19 20 21 22 23 24 25 26 27 28

000
ASUS45 KSLC 010110
RWRUT

UTAH REGIONAL WEATHER ROUNDUP
NATIONAL WEATHER SERVICE SALT LAKE CITY UT
700 PM MDT FRI SEP 30 2016

UTZ001>011-023>025-010200-

NORTHERN UTAH

CITY           SKY/WX    TMP DP  RH WIND       PRES   REMARKS
BRIGHAM CITY     N/A     74  46  35 CALM      30.08F
HILL AFB       PTCLDY    70  48  45 S5        30.11F
LOGAN          CLEAR     72  50  45 CALM      30.09F
OGDEN          CLEAR     72  46  39 S6        30.08F
PROVO AIRPORT  MOCLDY    68  55  63 NW5       30.10F
SALT LAKE CITY MOCLDY    74  47  38 E6        30.07F
VERNAL         PTCLDY    64  49  57 CALM      30.18F
WENDOVER       CLEAR    N/A N/A N/A MISG        N/A
HEBER CITY     MOCLDY    63  43  48 E5        30.16F
WEST JORDAN    PTCLDY    72  46  40 CALM      30.10F

$$

UTZ012>022-026-027-010200-

SOUTHERN/CENTRAL UTAH

CITY           SKY/WX    TMP DP  RH WIND       PRES   REMARKS
BLANDING       CLEAR     62  51  65 CALM      30.31S
BRYCE CANYON   PTCLDY    56  45  66 SE13      30.32S
CEDAR CITY     PTCLDY    65  44  46 SE8       30.18F
DELTA          CLOUDY    75  37  25 CALM      30.10S
MILFORD        PTCLDY    75  41  29 SW13      30.12R
MOAB/CYNLANDS  CLEAR     72  52  49 NW5       30.13F
PRICE          PTCLDY    65  48  54 CALM      30.22F
ST GEORGE      MOCLDY    84  48  28 S5        30.04S

$$

REGIONAL REPORTS     COLORADO/ARIZONA

CITY           SKY/WX    TMP DP  RH WIND       PRES   REMARKS
CRAIG, CO      CLOUDY    58  47  66 CALM      30.24S
GRAND JUNCTION PTCLDY    69  53  56 SW3       30.17F
RIFLE          CLOUDY    63  47  55 NE3       30.21F
MONTROSE       CLOUDY    60  47  61 S12       30.25F
CORTEZ         CLEAR     64  48  56 NW5       30.23S
PAGE, AZ       PTCLDY    74  51  44 NE3       30.13F
GRAND CANYON   PTCLDY    61  48  62 SW7       30.29S
KINGMAN        CLEAR     77  32  19 SE9       30.07F
FLAGSTAFF      MOCLDY    56  51  84 E5        30.31S

$$

REGIONAL REPORTS    NEVADA/IDAHO/WYOMING

CITY           SKY/WX    TMP DP  RH WIND       PRES   REMARKS
LAS VEGAS, NV  PTCLDY    90  42  18 E8        29.93F
ELY            CLEAR     69  33  26 S7        30.15F
ELKO           MOCLDY    69  43  38 NW12      30.05S
POCATELLO, ID  PTCLDY    70  47  43 S7        30.07F
BURLEY         CLEAR     69  50  50 E7        30.00F
EVANSTON, WY   CLEAR     61  42  49 N3        30.26S
ROCK SPRINGS   CLOUDY    62  40  44 SW7       30.23S

$$




USA.gov is the U.S. government's official web portal to all federal, state and local government web resources and services.